[Date Prev][Date Next][Thread Prev][Thread Next] - [Date Index][Thread Index][Author Index]

2 Line ISS keps [ updated today ]



ISS
1 25544U 98067A   01119.83285880  .00031446  00000-0  40860-3 0  9151
2 25544  51.5728 332.3546 0017372 353.7365 189.9608 15.58338530139520

----
Via the sarex mailing list at AMSAT.ORG courtesy of AMSAT-NA.
To unsubscribe, send "unsubscribe sarex" to Majordomo@amsat.org



AMSAT Top AMSAT Home